contact:dominique.lefevre@mio.osupytheas.fr, maurice.libes@osupytheas.fr, didier.mallarino@osupytheas.fr
Project:EMSO http://www.emso-fr.org/EMSO-France
Depth: 2436.0 m
Title:EMSO Ligure Ouest : Data MII capteur CSTAR
DateTime,Latitude,Longitude,Instrument_Serial,Reference_Counts,Signal_Counts,Corrected_Signal_raw_counts,Calculated_Beam_c_inverse_meters,Internal_thermistor_counts
DateTime,Latitude,Longitude,Instrument_Serial,Reference_Counts,Signal_Counts,Corrected_Signal_raw_counts,Calculated_Beam_c_inverse_meters,Internal_thermistor_counts
2020-12-16T00:01:07,42.805,6.029,CST-1368DR,5698,7973,15054,0.147,551
2020-12-16T00:04:09,42.805,6.029,CST-1368DR,5698,7973,15055,0.146,551
2020-12-16T00:07:11,42.805,6.029,CST-1368DR,5698,7972,15052,0.147,551
2020-12-16T00:10:12,42.805,6.029,CST-1368DR,5698,7972,15053,0.147,551
2020-12-16T00:13:14,42.805,6.029,CST-1368DR,5698,7973,15055,0.146,551
2020-12-16T00:16:15,42.805,6.029,CST-1368DR,5698,7973,15054,0.147,551
2020-12-16T00:19:17,42.805,6.029,CST-1368DR,5698,7973,15053,0.147,551
2020-12-16T00:22:18,42.805,6.029,CST-1368DR,5698,7973,15054,0.147,551
2020-12-16T00:25:20,42.805,6.029,CST-1368DR,5698,7972,15052,0.147,551
2020-12-16T00:28:22,42.805,6.029,CST-1368DR,5698,7973,15054,0.147,551
2020-12-16T00:31:23,42.805,6.029,CST-1368DR,5698,7973,15054,0.147,551
2020-12-16T00:34:25,42.805,6.029,CST-1368DR,5698,7973,15054,0.147,551
2020-12-16T00:37:26,42.805,6.029,CST-1368DR,5698,7972,15052,0.147,551
2020-12-16T00:40:28,42.805,6.029,CST-1368DR,5698,7972,15053,0.147,551
2020-12-16T00:43:29,42.805,6.029,CST-1368DR,5698,7973,15053,0.147,551
2020-12-16T00:46:31,42.805,6.029,CST-1368DR,5698,7974,15055,0.146,551
2020-12-16T00:49:33,42.805,6.029,CST-1368DR,5698,7973,15053,0.147,551
2020-12-16T00:52:34,42.805,6.029,CST-1368DR,5698,7972,15053,0.147,551
2020-12-16T00:55:36,42.805,6.029,CST-1368DR,5698,7973,15053,0.147,551
2020-12-16T00:58:37,42.805,6.029,CST-1368DR,5698,7973,15053,0.147,551
2020-12-16T01:01:39,42.805,6.029,CST-1368DR,5697,7973,15056,0.146,551
2020-12-16T01:04:41,42.805,6.029,CST-1368DR,5698,7972,15053,0.147,551
2020-12-16T01:07:42,42.805,6.029,CST-1368DR,5698,7973,15054,0.147,551
2020-12-16T01:10:44,42.805,6.029,CST-1368DR,5698,7973,15053,0.147,551
2020-12-16T01:13:45,42.805,6.029,CST-1368DR,5698,7972,15053,0.147,551
2020-12-16T01:16:47,42.805,6.029,CST-1368DR,5698,7973,15054,0.147,551
2020-12-16T01:19:48,42.805,6.029,CST-1368DR,5698,7972,15052,0.147,551
2020-12-16T01:22:50,42.805,6.029,CST-1368DR,5698,7973,15054,0.147,551
2020-12-16T01:25:52,42.805,6.029,CST-1368DR,5698,7973,15054,0.147,551
2020-12-16T01:28:53,42.805,6.029,CST-1368DR,5698,7973,15053,0.147,551
2020-12-16T01:31:55,42.805,6.029,CST-1368DR,5697,7972,15054,0.147,551
2020-12-16T01:34:56,42.805,6.029,CST-1368DR,5697,7973,15056,0.146,551
2020-12-16T01:37:58,42.805,6.029,CST-1368DR,5698,7972,15052,0.147,551
2020-12-16T01:41:00,42.805,6.029,CST-1368DR,5697,7973,15056,0.146,551
2020-12-16T01:44:01,42.805,6.029,CST-1368DR,5698,7973,15054,0.147,551
2020-12-16T01:47:03,42.805,6.029,CST-1368DR,5697,7972,15055,0.146,551
2020-12-16T01:50:04,42.805,6.029,CST-1368DR,5698,7972,15052,0.147,551
2020-12-16T01:53:06,42.805,6.029,CST-1368DR,5698,7972,15053,0.147,551
2020-12-16T01:56:07,42.805,6.029,CST-1368DR,5697,7972,15054,0.147,551
2020-12-16T01:59:09,42.805,6.029,CST-1368DR,5697,7972,15055,0.146,551
2020-12-16T02:02:11,42.805,6.029,CST-1368DR,5698,7973,15053,0.147,551
2020-12-16T02:05:12,42.805,6.029,CST-1368DR,5698,7973,15053,0.147,551
2020-12-16T02:08:14,42.805,6.029,CST-1368DR,5697,7972,15055,0.146,551
2020-12-16T02:11:15,42.805,6.029,CST-1368DR,5698,7973,15053,0.147,551
2020-12-16T02:14:17,42.805,6.029,CST-1368DR,5698,7972,15052,0.147,551
2020-12-16T02:17:18,42.805,6.029,CST-1368DR,5697,7973,15056,0.146,551
2020-12-16T02:20:20,42.805,6.029,CST-1368DR,5697,7972,15054,0.147,551
2020-12-16T02:23:22,42.805,6.029,CST-1368DR,5697,7973,15056,0.146,551
2020-12-16T02:26:23,42.805,6.029,CST-1368DR,5697,7972,15055,0.146,551
2020-12-16T02:29:25,42.805,6.029,CST-1368DR,5697,7972,15055,0.146,551
2020-12-16T02:32:26,42.805,6.029,CST-1368DR,5697,7973,15057,0.146,550
2020-12-16T02:35:28,42.805,6.029,CST-1368DR,5697,7973,15056,0.146,551
2020-12-16T02:38:30,42.805,6.029,CST-1368DR,5697,7972,15055,0.146,551
2020-12-16T02:41:31,42.805,6.029,CST-1368DR,5697,7973,15056,0.146,551
2020-12-16T02:44:33,42.805,6.029,CST-1368DR,5697,7973,15056,0.146,551
2020-12-16T02:47:34,42.805,6.029,CST-1368DR,5697,7973,15056,0.146,551
2020-12-16T02:50:36,42.805,6.029,CST-1368DR,5697,7972,15055,0.146,551
2020-12-16T02:53:37,42.805,6.029,CST-1368DR,5697,7972,15054,0.147,551
2020-12-16T02:56:39,42.805,6.029,CST-1368DR,5697,7972,15055,0.146,551
2020-12-16T02:59:41,42.805,6.029,CST-1368DR,5697,7973,15056,0.146,551
2020-12-16T03:02:42,42.805,6.029,CST-1368DR,5697,7972,15055,0.146,551
2020-12-16T03:05:44,42.805,6.029,CST-1368DR,5697,7972,15054,0.147,551
2020-12-16T03:08:45,42.805,6.029,CST-1368DR,5697,7972,15055,0.146,551
2020-12-16T03:11:47,42.805,6.029,CST-1368DR,5697,7973,15056,0.146,551
2020-12-16T03:14:49,42.805,6.029,CST-1368DR,5697,7973,15056,0.146,551
2020-12-16T03:17:50,42.805,6.029,CST-1368DR,5697,7972,15055,0.146,551
2020-12-16T03:20:52,42.805,6.029,CST-1368DR,5697,7973,15056,0.146,551
2020-12-16T03:23:53,42.805,6.029,CST-1368DR,5697,7972,15055,0.146,551
2020-12-16T03:26:55,42.805,6.029,CST-1368DR,5697,7972,15054,0.147,551
2020-12-16T03:29:56,42.805,6.029,CST-1368DR,5697,7972,15055,0.146,551
2020-12-16T03:32:58,42.805,6.029,CST-1368DR,5697,7971,15052,0.147,551
2020-12-16T03:36:00,42.805,6.029,CST-1368DR,5697,7971,15053,0.147,551
2020-12-16T03:39:01,42.805,6.029,CST-1368DR,5697,7971,15052,0.147,551
2020-12-16T03:42:03,42.805,6.029,CST-1368DR,5697,7972,15055,0.146,551
2020-12-16T03:45:04,42.805,6.029,CST-1368DR,5697,7972,15054,0.147,551
2020-12-16T03:48:06,42.805,6.029,CST-1368DR,5697,7972,15055,0.146,551
2020-12-16T03:51:07,42.805,6.029,CST-1368DR,5697,7972,15054,0.147,551
2020-12-16T03:54:09,42.805,6.029,CST-1368DR,5697,7972,15055,0.146,551
2020-12-16T03:57:11,42.805,6.029,CST-1368DR,5697,7971,15053,0.147,551
2020-12-16T04:00:12,42.805,6.029,CST-1368DR,5697,7972,15054,0.147,551
2020-12-16T04:03:14,42.805,6.029,CST-1368DR,5697,7972,15055,0.146,551
2020-12-16T04:06:15,42.805,6.029,CST-1368DR,5697,7972,15054,0.147,551
2020-12-16T04:09:17,42.805,6.029,CST-1368DR,5697,7972,15054,0.147,551
2020-12-16T04:12:19,42.805,6.029,CST-1368DR,5697,7971,15053,0.147,551
2020-12-16T04:15:20,42.805,6.029,CST-1368DR,5697,7972,15054,0.147,551
2020-12-16T04:18:22,42.805,6.029,CST-1368DR,5697,7972,15055,0.146,551
2020-12-16T04:21:23,42.805,6.029,CST-1368DR,5697,7972,15055,0.146,551
2020-12-16T04:24:25,42.805,6.029,CST-1368DR,5697,7972,15055,0.146,551
2020-12-16T04:27:26,42.805,6.029,CST-1368DR,5697,7970,15051,0.147,551
2020-12-16T04:30:28,42.805,6.029,CST-1368DR,5697,7972,15054,0.147,551
2020-12-16T04:33:30,42.805,6.029,CST-1368DR,5697,7972,15054,0.147,551
2020-12-16T04:36:31,42.805,6.029,CST-1368DR,5697,7971,15052,0.147,551
2020-12-16T04:39:33,42.805,6.029,CST-1368DR,5697,7972,15054,0.147,551
2020-12-16T04:42:34,42.805,6.029,CST-1368DR,5697,7972,15055,0.146,551
2020-12-16T04:45:36,42.805,6.029,CST-1368DR,5697,7972,15055,0.146,551
2020-12-16T04:48:38,42.805,6.029,CST-1368DR,5697,7972,15055,0.146,551
2020-12-16T04:51:39,42.805,6.029,CST-1368DR,5697,7972,15054,0.147,551
2020-12-16T04:54:41,42.805,6.029,CST-1368DR,5697,7972,15054,0.147,551
2020-12-16T04:57:42,42.805,6.029,CST-1368DR,5697,7971,15052,0.147,551
2020-12-16T05:00:44,42.805,6.029,CST-1368DR,5697,7972,15054,0.147,551
2020-12-16T05:03:45,42.805,6.029,CST-1368DR,5697,7972,15054,0.147,551
2020-12-16T05:06:47,42.805,6.029,CST-1368DR,5697,7971,15053,0.147,551
2020-12-16T05:09:49,42.805,6.029,CST-1368DR,5697,7971,15052,0.147,551
2020-12-16T05:12:50,42.805,6.029,CST-1368DR,5697,7971,15052,0.147,551
2020-12-16T05:15:52,42.805,6.029,CST-1368DR,5697,7972,15054,0.147,551
2020-12-16T05:18:53,42.805,6.029,CST-1368DR,5697,7972,15054,0.147,551
2020-12-16T05:21:55,42.805,6.029,CST-1368DR,5697,7972,15054,0.147,551
2020-12-16T05:24:56,42.805,6.029,CST-1368DR,5697,7972,15054,0.147,551
2020-12-16T05:27:58,42.805,6.029,CST-1368DR,5697,7971,15053,0.147,551
2020-12-16T05:31:00,42.805,6.029,CST-1368DR,5697,7971,15052,0.147,551
2020-12-16T05:34:01,42.805,6.029,CST-1368DR,5697,7971,15052,0.147,551
2020-12-16T05:37:03,42.805,6.029,CST-1368DR,5697,7972,15054,0.147,551
2020-12-16T05:40:04,42.805,6.029,CST-1368DR,5697,7972,15055,0.146,551
2020-12-16T05:43:06,42.805,6.029,CST-1368DR,5697,7971,15052,0.147,551
2020-12-16T05:46:08,42.805,6.029,CST-1368DR,5697,7970,15051,0.147,551
2020-12-16T05:49:09,42.805,6.029,CST-1368DR,5697,7972,15054,0.147,551
2020-12-16T05:52:11,42.805,6.029,CST-1368DR,5697,7971,15052,0.147,551
2020-12-16T05:55:12,42.805,6.029,CST-1368DR,5697,7970,15051,0.147,551
2020-12-16T05:58:14,42.805,6.029,CST-1368DR,5697,7972,15054,0.147,551
2020-12-16T06:01:15,42.805,6.029,CST-1368DR,5697,7971,15053,0.147,551
2020-12-16T06:04:17,42.805,6.029,CST-1368DR,5697,7971,15052,0.147,551
2020-12-16T06:07:19,42.805,6.029,CST-1368DR,5697,7972,15054,0.147,551
2020-12-16T06:10:20,42.805,6.029,CST-1368DR,5697,7972,15054,0.147,551
2020-12-16T06:13:22,42.805,6.029,CST-1368DR,5697,7971,15052,0.147,551
2020-12-16T06:16:23,42.805,6.029,CST-1368DR,5697,7971,15052,0.147,551
2020-12-16T06:19:25,42.805,6.029,CST-1368DR,5697,7971,15052,0.147,551
2020-12-16T06:22:26,42.805,6.029,CST-1368DR,5697,7971,15053,0.147,551
2020-12-16T06:25:28,42.805,6.029,CST-1368DR,5697,7972,15055,0.146,551
2020-12-16T06:28:30,42.805,6.029,CST-1368DR,5697,7971,15052,0.147,551
2020-12-16T06:31:31,42.805,6.029,CST-1368DR,5697,7972,15054,0.147,551
2020-12-16T06:34:33,42.805,6.029,CST-1368DR,5697,7972,15054,0.147,551
2020-12-16T06:37:34,42.805,6.029,CST-1368DR,5697,7972,15054,0.147,551
2020-12-16T06:40:36,42.805,6.029,CST-1368DR,5697,7970,15051,0.147,551
2020-12-16T06:43:38,42.805,6.029,CST-1368DR,5697,7971,15053,0.147,550
2020-12-16T06:46:39,42.805,6.029,CST-1368DR,5697,7972,15054,0.147,551
2020-12-16T06:49:41,42.805,6.029,CST-1368DR,5697,7972,15054,0.147,551
2020-12-16T06:52:42,42.805,6.029,CST-1368DR,5697,7971,15053,0.147,551
2020-12-16T06:55:44,42.805,6.029,CST-1368DR,5697,7971,15053,0.147,551
2020-12-16T06:58:45,42.805,6.029,CST-1368DR,5697,7970,15051,0.147,551
2020-12-16T07:01:47,42.805,6.029,CST-1368DR,5697,7971,15052,0.147,551
2020-12-16T07:04:49,42.805,6.029,CST-1368DR,5697,7971,15053,0.147,551
2020-12-16T07:07:50,42.805,6.029,CST-1368DR,5697,7972,15054,0.147,551
2020-12-16T07:10:52,42.805,6.029,CST-1368DR,5697,7972,15054,0.147,551
2020-12-16T07:13:53,42.805,6.029,CST-1368DR,5697,7972,15054,0.147,551
2020-12-16T07:16:55,42.805,6.029,CST-1368DR,5697,7972,15054,0.147,551
2020-12-16T07:19:57,42.805,6.029,CST-1368DR,5697,7970,15051,0.147,551
2020-12-16T07:22:58,42.805,6.029,CST-1368DR,5697,7971,15052,0.147,551
2020-12-16T07:26:00,42.805,6.029,CST-1368DR,5697,7972,15054,0.147,551
2020-12-16T07:29:01,42.805,6.029,CST-1368DR,5697,7971,15052,0.147,551
2020-12-16T07:32:03,42.805,6.029,CST-1368DR,5697,7971,15052,0.147,551
2020-12-16T07:35:04,42.805,6.029,CST-1368DR,5697,7972,15054,0.147,551
2020-12-16T07:38:06,42.805,6.029,CST-1368DR,5697,7972,15055,0.146,551
2020-12-16T07:41:08,42.805,6.029,CST-1368DR,5697,7971,15053,0.147,551
2020-12-16T07:44:09,42.805,6.029,CST-1368DR,5697,7971,15053,0.147,551
2020-12-16T07:47:11,42.805,6.029,CST-1368DR,5697,7971,15053,0.147,551
2020-12-16T07:50:12,42.805,6.029,CST-1368DR,5697,7972,15054,0.147,551
2020-12-16T07:53:14,42.805,6.029,CST-1368DR,5697,7971,15052,0.147,551
2020-12-16T07:56:15,42.805,6.029,CST-1368DR,5697,7972,15054,0.147,551
2020-12-16T07:59:17,42.805,6.029,CST-1368DR,5697,7972,15054,0.147,551
2020-12-16T08:02:19,42.805,6.029,CST-1368DR,5697,7972,15054,0.147,551
2020-12-16T08:05:20,42.805,6.029,CST-1368DR,5697,7971,15053,0.147,551
2020-12-16T08:08:22,42.805,6.029,CST-1368DR,5697,7971,15052,0.147,551
2020-12-16T08:11:23,42.805,6.029,CST-1368DR,5697,7972,15054,0.147,551
2020-12-16T08:14:25,42.805,6.029,CST-1368DR,5697,7971,15053,0.147,551
2020-12-16T08:17:27,42.805,6.029,CST-1368DR,5697,7972,15054,0.147,551
2020-12-16T08:20:28,42.805,6.029,CST-1368DR,5697,7970,15051,0.147,551
2020-12-16T08:23:30,42.805,6.029,CST-1368DR,5697,7972,15054,0.147,551
2020-12-16T08:26:31,42.805,6.029,CST-1368DR,5697,7970,15051,0.147,551
2020-12-16T08:29:33,42.805,6.029,CST-1368DR,5697,7971,15053,0.147,551
2020-12-16T08:32:34,42.805,6.029,CST-1368DR,5697,7971,15053,0.147,551
2020-12-16T08:35:36,42.805,6.029,CST-1368DR,5697,7969,15050,0.148,551
2020-12-16T08:38:38,42.805,6.029,CST-1368DR,5697,7972,15054,0.147,551
2020-12-16T08:41:39,42.805,6.029,CST-1368DR,5697,7971,15052,0.147,551
2020-12-16T08:44:41,42.805,6.029,CST-1368DR,5697,7972,15055,0.146,551
2020-12-16T08:47:42,42.805,6.029,CST-1368DR,5697,7971,15052,0.147,551
2020-12-16T08:50:44,42.805,6.029,CST-1368DR,5697,7972,15054,0.147,551
2020-12-16T08:53:46,42.805,6.029,CST-1368DR,5697,7971,15052,0.147,551
2020-12-16T08:56:47,42.805,6.029,CST-1368DR,5697,7971,15052,0.147,551
2020-12-16T08:59:49,42.805,6.029,CST-1368DR,5697,7971,15053,0.147,551
2020-12-16T09:02:50,42.805,6.029,CST-1368DR,5697,7971,15052,0.147,551
2020-12-16T09:05:52,42.805,6.029,CST-1368DR,5697,7971,15053,0.147,551
2020-12-16T09:08:53,42.805,6.029,CST-1368DR,5697,7972,15054,0.147,551
2020-12-16T09:11:55,42.805,6.029,CST-1368DR,5697,7972,15054,0.147,551
2020-12-16T09:14:57,42.805,6.029,CST-1368DR,5697,7971,15053,0.147,551
2020-12-16T09:17:58,42.805,6.029,CST-1368DR,5697,7971,15053,0.147,551
2020-12-16T09:21:00,42.805,6.029,CST-1368DR,5697,7971,15052,0.147,551
2020-12-16T09:24:01,42.805,6.029,CST-1368DR,5697,7970,15051,0.147,551
2020-12-16T09:27:03,42.805,6.029,CST-1368DR,5697,7971,15052,0.147,551
2020-12-16T09:30:04,42.805,6.029,CST-1368DR,5697,7970,15051,0.147,551
2020-12-16T09:33:06,42.805,6.029,CST-1368DR,5697,7972,15054,0.147,551
2020-12-16T09:36:08,42.805,6.029,CST-1368DR,5697,7970,15051,0.147,550
2020-12-16T09:39:09,42.805,6.029,CST-1368DR,5697,7971,15052,0.147,551
2020-12-16T09:42:11,42.805,6.029,CST-1368DR,5697,7971,15052,0.147,551
2020-12-16T09:45:12,42.805,6.029,CST-1368DR,5697,7972,15054,0.147,551
2020-12-16T09:48:14,42.805,6.029,CST-1368DR,5696,7971,15056,0.146,551
2020-12-16T09:51:16,42.805,6.029,CST-1368DR,5696,7972,15056,0.146,551
2020-12-16T09:54:17,42.805,6.029,CST-1368DR,5696,7972,15056,0.146,551
2020-12-16T09:57:19,42.805,6.029,CST-1368DR,5696,7972,15056,0.146,551
2020-12-16T10:00:20,42.805,6.029,CST-1368DR,5696,7971,15055,0.146,551
2020-12-16T10:03:22,42.805,6.029,CST-1368DR,5697,7972,15054,0.147,551
2020-12-16T10:06:23,42.805,6.029,CST-1368DR,5696,7971,15055,0.146,551
2020-12-16T10:09:25,42.805,6.029,CST-1368DR,5697,7972,15054,0.147,551
2020-12-16T10:12:27,42.805,6.029,CST-1368DR,5696,7972,15057,0.146,551
2020-12-16T10:15:28,42.805,6.029,CST-1368DR,5697,7972,15054,0.147,551
2020-12-16T10:18:30,42.805,6.029,CST-1368DR,5697,7972,15054,0.147,551
2020-12-16T10:21:31,42.805,6.029,CST-1368DR,5697,7972,15054,0.147,551
2020-12-16T10:24:33,42.805,6.029,CST-1368DR,5697,7972,15054,0.147,551
2020-12-16T10:27:35,42.805,6.029,CST-1368DR,5696,7972,15056,0.146,551
2020-12-16T10:30:36,42.805,6.029,CST-1368DR,5696,7970,15053,0.147,551
2020-12-16T10:33:38,42.805,6.029,CST-1368DR,5696,7971,15056,0.146,551
2020-12-16T10:36:39,42.805,6.029,CST-1368DR,5696,7972,15057,0.146,551
2020-12-16T10:39:41,42.805,6.029,CST-1368DR,5696,7969,15052,0.147,551
2020-12-16T10:42:42,42.805,6.029,CST-1368DR,5697,7970,15051,0.147,551
2020-12-16T10:45:44,42.805,6.029,CST-1368DR,5696,7971,15054,0.147,551
2020-12-16T10:48:46,42.805,6.029,CST-1368DR,5696,7970,15054,0.147,550
2020-12-16T10:51:47,42.805,6.029,CST-1368DR,5696,7970,15053,0.147,551
2020-12-16T10:54:49,42.805,6.029,CST-1368DR,5696,7969,15051,0.147,551
2020-12-16T10:57:50,42.805,6.029,CST-1368DR,5696,7971,15054,0.147,551
2020-12-16T11:00:52,42.805,6.029,CST-1368DR,5696,7971,15054,0.147,551
2020-12-16T11:03:53,42.805,6.029,CST-1368DR,5696,7971,15056,0.146,551
2020-12-16T11:06:55,42.805,6.029,CST-1368DR,5696,7972,15056,0.146,551
2020-12-16T11:09:57,42.805,6.029,CST-1368DR,5696,7971,15056,0.146,551
2020-12-16T11:12:58,42.805,6.029,CST-1368DR,5696,7971,15054,0.147,551
2020-12-16T11:16:00,42.805,6.029,CST-1368DR,5696,7971,15056,0.146,551
2020-12-16T11:19:01,42.805,6.029,CST-1368DR,5696,7970,15053,0.147,550
2020-12-16T11:22:03,42.805,6.029,CST-1368DR,5696,7970,15052,0.147,551
2020-12-16T11:25:05,42.805,6.029,CST-1368DR,5696,7970,15054,0.147,551
2020-12-16T11:28:06,42.805,6.029,CST-1368DR,5696,7968,15049,0.148,551
2020-12-16T11:31:08,42.805,6.029,CST-1368DR,5696,7970,15053,0.147,551
2020-12-16T11:34:09,42.805,6.029,CST-1368DR,5696,7970,15053,0.147,551
2020-12-16T11:37:11,42.805,6.029,CST-1368DR,5696,7970,15054,0.147,551
2020-12-16T11:40:12,42.805,6.029,CST-1368DR,5696,7970,15053,0.147,551
2020-12-16T11:43:14,42.805,6.029,CST-1368DR,5696,7971,15055,0.146,551
2020-12-16T11:46:16,42.805,6.029,CST-1368DR,5696,7971,15056,0.146,550
2020-12-16T11:49:17,42.805,6.029,CST-1368DR,5696,7968,15050,0.148,551
2020-12-16T11:52:19,42.805,6.029,CST-1368DR,5696,7969,15052,0.147,551
2020-12-16T11:55:20,42.805,6.029,CST-1368DR,5696,7970,15053,0.147,551
2020-12-16T11:58:22,42.805,6.029,CST-1368DR,5696,7970,15053,0.147,551
2020-12-16T12:01:23,42.805,6.029,CST-1368DR,5696,7970,15054,0.147,551
2020-12-16T12:04:25,42.805,6.029,CST-1368DR,5696,7971,15056,0.146,551
2020-12-16T12:07:27,42.805,6.029,CST-1368DR,5696,7969,15051,0.147,551
2020-12-16T12:10:28,42.805,6.029,CST-1368DR,5696,7970,15054,0.147,550
2020-12-16T12:13:30,42.805,6.029,CST-1368DR,5696,7969,15052,0.147,551
2020-12-16T12:16:31,42.805,6.029,CST-1368DR,5696,7969,15051,0.147,551
2020-12-16T12:19:33,42.805,6.029,CST-1368DR,5696,7968,15050,0.148,551
2020-12-16T12:22:35,42.805,6.029,CST-1368DR,5696,7970,15052,0.147,551
2020-12-16T12:25:36,42.805,6.029,CST-1368DR,5696,7969,15051,0.147,551
2020-12-16T12:28:38,42.805,6.029,CST-1368DR,5696,7970,15054,0.147,551
2020-12-16T12:31:39,42.805,6.029,CST-1368DR,5696,7970,15053,0.147,551
2020-12-16T12:34:41,42.805,6.029,CST-1368DR,5696,7972,15056,0.146,551
2020-12-16T12:37:42,42.805,6.029,CST-1368DR,5696,7971,15054,0.147,551
2020-12-16T12:40:44,42.805,6.029,CST-1368DR,5696,7971,15054,0.147,551
2020-12-16T12:43:46,42.805,6.029,CST-1368DR,5696,7971,15056,0.146,551
2020-12-16T12:46:47,42.805,6.029,CST-1368DR,5696,7971,15055,0.146,551
2020-12-16T12:49:49,42.805,6.029,CST-1368DR,5696,7972,15056,0.146,551
2020-12-16T12:52:50,42.805,6.029,CST-1368DR,5696,7971,15054,0.147,551
2020-12-16T12:55:52,42.805,6.029,CST-1368DR,5696,7971,15054,0.147,551
2020-12-16T12:58:54,42.805,6.029,CST-1368DR,5696,7972,15057,0.146,551
2020-12-16T13:01:55,42.805,6.029,CST-1368DR,5696,7971,15055,0.146,551
2020-12-16T13:04:57,42.805,6.029,CST-1368DR,5696,7971,15054,0.147,551
2020-12-16T13:07:58,42.805,6.029,CST-1368DR,5696,7971,15056,0.146,551
2020-12-16T13:11:00,42.805,6.029,CST-1368DR,5696,7970,15054,0.147,551
2020-12-16T13:14:01,42.805,6.029,CST-1368DR,5696,7971,15055,0.146,551
2020-12-16T13:17:03,42.805,6.029,CST-1368DR,5696,7971,15055,0.146,551
2020-12-16T13:20:05,42.805,6.029,CST-1368DR,5696,7971,15054,0.147,551
2020-12-16T13:23:06,42.805,6.029,CST-1368DR,5696,7970,15054,0.147,551
2020-12-16T13:26:08,42.805,6.029,CST-1368DR,5696,7969,15052,0.147,551
2020-12-16T13:29:09,42.805,6.029,CST-1368DR,5696,7971,15054,0.147,551
2020-12-16T13:32:11,42.805,6.029,CST-1368DR,5696,7971,15056,0.146,551
2020-12-16T13:35:12,42.805,6.029,CST-1368DR,5696,7971,15054,0.147,551
2020-12-16T13:38:14,42.805,6.029,CST-1368DR,5696,7971,15056,0.146,551
2020-12-16T13:41:16,42.805,6.029,CST-1368DR,5696,7970,15054,0.147,551
2020-12-16T13:44:17,42.805,6.029,CST-1368DR,5696,7971,15054,0.147,551
2020-12-16T13:47:19,42.805,6.029,CST-1368DR,5696,7971,15054,0.147,551
2020-12-16T13:50:20,42.805,6.029,CST-1368DR,5696,7971,15056,0.146,551
2020-12-16T13:53:22,42.805,6.029,CST-1368DR,5696,7970,15053,0.147,551
2020-12-16T13:56:24,42.805,6.029,CST-1368DR,5696,7971,15056,0.146,551
2020-12-16T13:59:25,42.805,6.029,CST-1368DR,5696,7970,15053,0.147,551
2020-12-16T14:02:27,42.805,6.029,CST-1368DR,5696,7971,15055,0.146,551
2020-12-16T14:05:28,42.805,6.029,CST-1368DR,5696,7971,15054,0.147,551
2020-12-16T14:08:30,42.805,6.029,CST-1368DR,5696,7972,15056,0.146,551
2020-12-16T14:11:31,42.805,6.029,CST-1368DR,5696,7971,15055,0.146,550
2020-12-16T14:14:33,42.805,6.029,CST-1368DR,5696,7972,15058,0.146,551
2020-12-16T14:17:35,42.805,6.029,CST-1368DR,5696,7972,15057,0.146,551
2020-12-16T14:20:36,42.805,6.029,CST-1368DR,5696,7971,15054,0.147,551
2020-12-16T14:23:38,42.805,6.029,CST-1368DR,5696,7970,15054,0.147,551
2020-12-16T14:26:40,42.805,6.029,CST-1368DR,5696,7968,15050,0.148,551
2020-12-16T14:29:41,42.805,6.029,CST-1368DR,5696,7969,15052,0.147,551
2020-12-16T14:32:43,42.805,6.029,CST-1368DR,5696,7970,15054,0.147,551
2020-12-16T14:35:44,42.805,6.029,CST-1368DR,5696,7967,15048,0.148,551
2020-12-16T14:38:46,42.805,6.029,CST-1368DR,5696,7971,15054,0.147,551
2020-12-16T14:41:47,42.805,6.029,CST-1368DR,5696,7967,15048,0.148,551
2020-12-16T14:44:49,42.805,6.029,CST-1368DR,5696,7971,15054,0.147,551
2020-12-16T14:47:51,42.805,6.029,CST-1368DR,5696,7970,15053,0.147,551
2020-12-16T14:50:52,42.805,6.029,CST-1368DR,5696,7969,15051,0.147,551
2020-12-16T14:53:54,42.805,6.029,CST-1368DR,5696,7970,15054,0.147,551
2020-12-16T14:56:55,42.805,6.029,CST-1368DR,5696,7970,15052,0.147,551
2020-12-16T14:59:57,42.805,6.029,CST-1368DR,5696,7970,15053,0.147,551
2020-12-16T15:02:58,42.805,6.029,CST-1368DR,5696,7972,15056,0.146,551
2020-12-16T15:06:00,42.805,6.029,CST-1368DR,5696,7971,15055,0.146,551
2020-12-16T15:09:02,42.805,6.029,CST-1368DR,5696,7970,15053,0.147,551
2020-12-16T15:12:03,42.805,6.029,CST-1368DR,5696,7970,15054,0.147,551
2020-12-16T15:15:05,42.805,6.029,CST-1368DR,5696,7971,15056,0.146,551
2020-12-16T15:18:06,42.805,6.029,CST-1368DR,5696,7971,15055,0.146,551
2020-12-16T15:21:08,42.805,6.029,CST-1368DR,5696,7972,15056,0.146,551
2020-12-16T15:24:10,42.805,6.029,CST-1368DR,5696,7971,15056,0.146,551
2020-12-16T15:27:11,42.805,6.029,CST-1368DR,5696,7970,15054,0.147,551
2020-12-16T15:30:13,42.805,6.029,CST-1368DR,5696,7971,15054,0.147,551
2020-12-16T15:33:14,42.805,6.029,CST-1368DR,5696,7971,15054,0.147,551
2020-12-16T15:36:16,42.805,6.029,CST-1368DR,5696,7970,15054,0.147,551
2020-12-16T15:39:17,42.805,6.029,CST-1368DR,5696,7971,15054,0.147,551
2020-12-16T15:42:19,42.805,6.029,CST-1368DR,5696,7971,15056,0.146,551
2020-12-16T15:45:21,42.805,6.029,CST-1368DR,5696,7971,15055,0.146,551
2020-12-16T15:48:22,42.805,6.029,CST-1368DR,5696,7971,15056,0.146,551
2020-12-16T15:51:24,42.805,6.029,CST-1368DR,5696,7972,15057,0.146,551
2020-12-16T15:54:25,42.805,6.029,CST-1368DR,5696,7970,15053,0.147,551
2020-12-16T15:57:27,42.805,6.029,CST-1368DR,5696,7969,15052,0.147,551
2020-12-16T16:00:29,42.805,6.029,CST-1368DR,5696,7967,15048,0.148,551
2020-12-16T16:03:30,42.805,6.029,CST-1368DR,5696,7968,15050,0.148,551
2020-12-16T16:06:32,42.805,6.029,CST-1368DR,5696,7970,15053,0.147,551
2020-12-16T16:09:33,42.805,6.029,CST-1368DR,5696,7970,15053,0.147,551
2020-12-16T16:12:35,42.805,6.029,CST-1368DR,5696,7970,15053,0.147,551
2020-12-16T16:15:36,42.805,6.029,CST-1368DR,5696,7971,15054,0.147,551
2020-12-16T16:18:38,42.805,6.029,CST-1368DR,5696,7970,15052,0.147,551
2020-12-16T16:21:40,42.805,6.029,CST-1368DR,5696,7970,15054,0.147,551
2020-12-16T16:24:41,42.805,6.029,CST-1368DR,5696,7969,15052,0.147,551
2020-12-16T16:27:43,42.805,6.029,CST-1368DR,5696,7969,15052,0.147,551
2020-12-16T16:30:44,42.805,6.029,CST-1368DR,5696,7969,15051,0.147,551
2020-12-16T16:33:46,42.805,6.029,CST-1368DR,5696,7965,15044,0.149,551
2020-12-16T16:36:47,42.805,6.029,CST-1368DR,5696,7970,15054,0.147,551
2020-12-16T16:39:49,42.805,6.029,CST-1368DR,5696,7971,15055,0.146,550
2020-12-16T16:42:51,42.805,6.029,CST-1368DR,5696,7970,15053,0.147,551
2020-12-16T16:45:52,42.805,6.029,CST-1368DR,5696,7970,15054,0.147,551
2020-12-16T16:48:54,42.805,6.029,CST-1368DR,5696,7970,15052,0.147,551
2020-12-16T16:51:55,42.805,6.029,CST-1368DR,5696,7970,15053,0.147,551